AWC731 EGHI-EGNT

Flight info

Callsign AWC731
Flight time N/A
Altitude 34000
Route NORRY Q41 SILVA UM605 DTY UY250 RIMTO
Aircraft A320/M-SDE3FGHIRWY/LB1

Departure

Time 2026-05-08 18:15
Airport Southampton Airport (EGHI)

Arrival

Time N/A
Airport Newcastle International Airport (EGNT)
Time Latitude Longitude Altitude Speed Heading
2026-05-08 18:03 50.94986 -1.36178 39 ft 0 kts 19°
2026-05-08 18:10 50.94988 -1.36172 39 ft 2 kts 54°
2026-05-08 18:10 50.94952 -1.36181 39 ft 12 kts 200°
2026-05-08 18:11 50.94908 -1.36110 39 ft 6 kts 109°
2026-05-08 18:11 50.94895 -1.36031 39 ft 9 kts 82°
2026-05-08 18:11 50.94957 -1.35976 38 ft 13 kts 19°
2026-05-08 18:11 50.95043 -1.35924 39 ft 11 kts 33°
2026-05-08 18:12 50.95037 -1.35799 40 ft 14 kts 110°
2026-05-08 18:12 50.95049 -1.35669 40 ft 13 kts 24°
2026-05-08 18:12 50.95149 -1.35614 41 ft 17 kts 20°
2026-05-08 18:12 50.95276 -1.35541 40 ft 22 kts 19°
2026-05-08 18:13 50.95429 -1.35455 42 ft 25 kts 19°
2026-05-08 18:13 50.95602 -1.35360 43 ft 28 kts 20°
2026-05-08 18:13 50.95777 -1.35264 42 ft 17 kts 19°
2026-05-08 18:13 50.95826 -1.35246 43 ft 7 kts
2026-05-08 18:14 50.95871 -1.35221 41 ft 6 kts 98°
2026-05-08 18:14 50.95840 -1.35226 40 ft 9 kts 198°
2026-05-08 18:14 50.95507 -1.35411 43 ft 92 kts 198°
2026-05-08 18:14 50.94685 -1.35862 99 ft 149 kts 195°
2026-05-08 18:15 50.93708 -1.36453 813 ft 154 kts 203°
2026-05-08 18:15 50.92771 -1.37370 1529 ft 162 kts 211°
2026-05-08 18:15 50.91844 -1.38494 2114 ft 181 kts 226°
2026-05-08 18:15 50.91416 -1.40493 2523 ft 214 kts 274°
2026-05-08 18:16 50.92062 -1.42733 3063 ft 242 kts 316°
2026-05-08 18:16 50.93638 -1.43991 3680 ft 265 kts 355°
2026-05-08 18:16 50.95466 -1.43575 4700 ft 270 kts 21°
2026-05-08 18:16 50.97191 -1.42338 5839 ft 275 kts 28°
2026-05-08 18:17 50.98895 -1.40905 6945 ft 280 kts 28°
2026-05-08 18:17 51.00654 -1.39493 7982 ft 286 kts 26°
2026-05-08 18:17 51.02485 -1.38174 9048 ft 292 kts 23°
2026-05-08 18:17 51.04382 -1.36945 10080 ft 297 kts 21°
2026-05-08 18:18 51.06384 -1.35743 10653 ft 319 kts 20°
2026-05-08 18:18 51.08519 -1.34527 11328 ft 331 kts 19°
2026-05-08 18:18 51.10717 -1.33307 12207 ft 337 kts 19°
2026-05-08 18:18 51.12944 -1.32080 13124 ft 341 kts 19°
2026-05-08 18:19 51.15193 -1.30835 14027 ft 345 kts 19°
2026-05-08 18:19 51.17477 -1.29564 14821 ft 349 kts 19°
2026-05-08 18:19 51.19814 -1.28258 15607 ft 354 kts 19°
2026-05-08 18:19 51.22156 -1.26947 16380 ft 359 kts 19°
2026-05-08 18:20 51.24533 -1.25615 17141 ft 364 kts 19°
2026-05-08 18:20 51.26938 -1.24260 17893 ft 370 kts 19°
2026-05-08 18:20 51.29384 -1.22879 18613 ft 375 kts 20°
2026-05-08 18:20 51.31868 -1.21478 19299 ft 380 kts 19°
2026-05-08 18:21 51.34397 -1.20051 20025 ft 383 kts 19°
2026-05-08 18:21 51.36922 -1.18624 20741 ft 387 kts 19°
2026-05-08 18:21 51.39468 -1.17179 21431 ft 390 kts 19°
2026-05-08 18:21 51.42041 -1.15717 22105 ft 394 kts 19°
2026-05-08 18:22 51.44636 -1.14241 22792 ft 398 kts 18°
2026-05-08 18:22 51.47262 -1.12749 23497 ft 402 kts 18°
2026-05-08 18:22 51.49970 -1.11320 24104 ft 405 kts 15°
2026-05-08 18:22 51.52687 -1.10075 24698 ft 408 kts 13°
2026-05-08 18:23 51.55453 -1.08926 25275 ft 411 kts 12°
2026-05-08 18:23 51.58261 -1.07808 25854 ft 415 kts 11°
2026-05-08 18:23 51.61088 -1.06689 26413 ft 418 kts 10°
2026-05-08 18:23 51.63962 -1.05908 26963 ft 419 kts
2026-05-08 18:24 51.66851 -1.05198 27504 ft 422 kts
2026-05-08 18:24 51.69765 -1.04457 28038 ft 425 kts
2026-05-08 18:24 51.71742 -1.03945 28391 ft 427 kts
2026-05-08 18:24 51.74686 -1.03173 28902 ft 430 kts
2026-05-08 18:25 51.77652 -1.02391 29414 ft 433 kts
2026-05-08 18:25 51.80634 -1.01607 29929 ft 436 kts
2026-05-08 18:25 51.83646 -1.01055 30390 ft 435 kts 358°
2026-05-08 18:25 51.86705 -1.01259 30829 ft 433 kts 348°
2026-05-08 18:26 51.89656 -1.02129 31282 ft 432 kts 344°
2026-05-08 18:26 51.92608 -1.03107 31740 ft 434 kts 344°
2026-05-08 18:26 51.95571 -1.04078 32245 ft 434 kts 344°
2026-05-08 18:26 51.98562 -1.05045 32907 ft 432 kts 344°
2026-05-08 18:27 52.01504 -1.05994 33574 ft 429 kts 344°
2026-05-08 18:27 52.03439 -1.06618 33930 ft 428 kts 344°
2026-05-08 18:27 52.07329 -1.07874 34091 ft 421 kts 344°
2026-05-08 18:27 52.10151 -1.08778 34101 ft 406 kts 343°
2026-05-08 18:28 52.15660 -1.10574 34105 ft 398 kts 343°
2026-05-08 18:28 52.21229 -1.11151 34110 ft 406 kts 357°
2026-05-08 18:29 52.26915 -1.10727 34104 ft 406 kts 357°
2026-05-08 18:29 52.32565 -1.10303 34104 ft 406 kts 357°
2026-05-08 18:30 52.38209 -1.09884 34103 ft 406 kts 357°
2026-05-08 18:30 52.43855 -1.09467 34085 ft 406 kts 357°
2026-05-08 18:31 52.49500 -1.09043 34080 ft 406 kts 357°
2026-05-08 18:31 52.55144 -1.08621 34081 ft 406 kts 357°
2026-05-08 18:32 52.60788 -1.08207 34077 ft 406 kts 357°
2026-05-08 18:32 52.66473 -1.07782 34081 ft 406 kts 357°
2026-05-08 18:33 52.72115 -1.07358 34114 ft 406 kts 356°
2026-05-08 18:33 52.77636 -1.08277 34121 ft 396 kts 343°
2026-05-08 18:34 52.83062 -1.09930 34120 ft 397 kts 344°
2026-05-08 18:34 52.88493 -1.11575 34122 ft 397 kts 343°
2026-05-08 18:35 52.93929 -1.13228 34120 ft 397 kts 343°
2026-05-08 18:35 52.99397 -1.14900 34118 ft 397 kts 343°
2026-05-08 18:36 53.04825 -1.16563 34115 ft 397 kts 343°
2026-05-08 18:36 53.10256 -1.18228 34113 ft 397 kts 343°
2026-05-08 18:37 53.15694 -1.19903 34112 ft 397 kts 343°
2026-05-08 18:37 53.21125 -1.21588 34112 ft 397 kts 343°
2026-05-08 18:38 53.26565 -1.23273 34111 ft 397 kts 343°
2026-05-08 18:38 53.32001 -1.24944 34120 ft 397 kts 343°
2026-05-08 18:39 53.37439 -1.26634 34118 ft 397 kts 343°
2026-05-08 18:39 53.42940 -1.28155 34114 ft 402 kts 349°
2026-05-08 18:40 53.48520 -1.28833 34121 ft 402 kts 349°
2026-05-08 18:40 53.54108 -1.29501 34127 ft 402 kts 349°
2026-05-08 18:41 53.59507 -1.31331 34108 ft 392 kts 332°
2026-05-08 18:41 53.61931 -1.33287 33706 ft 383 kts 323°
2026-05-08 18:41 53.63471 -1.34853 33271 ft 383 kts 323°